When you browse on this site, cookies collect data to enhance your experience and personalize the content and advertising you see.
Visit our Privacy Policy to learn more. By continuing to use the site, you agree to this use of cookies and data.
  • In Hungary
  • List of Countries
  • For 7 days
  • Water Temperature
  • Weather Map
  • News
  • Weather Widgets
  • user-avatar
    Login

    Hourly Weather Novomogilevskiy

    Today, 22 October, Tuesday

    Time Temperature Precipitation Wind Pressure Humidity
    00:00 +14°C° 0 mm 2 mps 761 mmHg 74%
    01:00 +13°C° 0 mm 2 mps 761 mmHg 76%
    02:00 +13°C° 0 mm 2 mps 761 mmHg 78%
    03:00 +12°C° 0 mm 1 mps 762 mmHg 83%
    04:00 +12°C° 0 mm 1 mps 762 mmHg 84%
    05:00 +11°C° 0 mm 1 mps 762 mmHg 85%
    06:00 +11°C° 0 mm 1 mps 762 mmHg 86%
    07:00 +12°C° 0 mm 1 mps 762 mmHg 81%
    08:00 +13°C° 0 mm 2 mps 762 mmHg 76%
    09:00 +15°C° 0 mm 2 mps 762 mmHg 71%
    10:00 +16°C° 0 mm 2 mps 762 mmHg 64%
    11:00 +18°C° 0 mm 2 mps 762 mmHg 58%
    12:00 +20°C° 0 mm 2 mps 762 mmHg 52%
    13:00 +21°C° 0 mm 2 mps 762 mmHg 49%
    14:00 +21°C° 0 mm 2 mps 762 mmHg 47%
    15:00 +22°C° 0 mm 3 mps 761 mmHg 45%
    16:00 +20°C° 0 mm 3 mps 762 mmHg 49%
    17:00 +19°C° 0 mm 3 mps 762 mmHg 53%
    18:00 +17°C° 0 mm 3 mps 762 mmHg 57%
    19:00 +17°C° 0 mm 2 mps 762 mmHg 58%
    20:00 +16°C° 0 mm 2 mps 762 mmHg 59%
    21:00 +15°C° 0 mm 2 mps 762 mmHg 60%
    22:00 +15°C° 0 mm 2 mps 762 mmHg 62%
    23:00 +14°C° 0 mm 2 mps 762 mmHg 63%

    Tomorrow, 23 October, Wednesday

    Time Temperature Precipitation Wind Pressure Humidity
    00:00 +14°C° 0 mm 2 mps 762 mmHg 65%
    01:00 +13°C° 0 mm 2 mps 762 mmHg 67%
    02:00 +13°C° 0 mm 1 mps 762 mmHg 69%
    03:00 +12°C° 0 mm 1 mps 762 mmHg 71%
    04:00 +12°C° 0 mm 1 mps 762 mmHg 72%
    05:00 +12°C° 0 mm 1 mps 762 mmHg 73%
    06:00 +11°C° 0 mm 0 mps 762 mmHg 74%
    07:00 +13°C° 0 mm 1 mps 762 mmHg 69%
    08:00 +14°C° 0 mm 1 mps 762 mmHg 64%
    09:00 +15°C° 0 mm 1 mps 762 mmHg 60%
    10:00 +17°C° 0 mm 2 mps 762 mmHg 53%
    11:00 +19°C° 0 mm 2 mps 762 mmHg 47%
    12:00 +21°C° 0 mm 2 mps 762 mmHg 40%
    13:00 +21°C° 0 mm 2 mps 762 mmHg 38%
    14:00 +23°C° 0 mm 2 mps 762 mmHg 36%
    15:00 +23°C° 0 mm 2 mps 761 mmHg 34%
    16:00 +21°C° 0 mm 2 mps 761 mmHg 38%
    17:00 +19°C° 0 mm 2 mps 761 mmHg 43%
    18:00 +19°C° 0 mm 1 mps 761 mmHg 47%
    19:00 +17°C° 0 mm 2 mps 761 mmHg 49%
    20:00 +16°C° 0 mm 2 mps 761 mmHg 50%
    21:00 +16°C° 0 mm 2 mps 762 mmHg 52%
    22:00 +15°C° 0 mm 2 mps 761 mmHg 54%
    23:00 +15°C° 0 mm 1 mps 761 mmHg 56%

    Day after tomorrow, 24 October, Thursday

    Time Temperature Precipitation Wind Pressure Humidity
    00:00 +14°C° 0 mm 1 mps 761 mmHg 58%
    01:00 +14°C° 0 mm 1 mps 761 mmHg 60%
    02:00 +14°C° 0 mm 1 mps 761 mmHg 62%
    03:00 +12°C° 0 mm 0 mps 761 mmHg 64%
    04:00 +12°C° 0 mm 0 mps 761 mmHg 66%
    05:00 +12°C° 0 mm 0 mps 761 mmHg 67%
    06:00 +12°C° 0 mm 0 mps 761 mmHg 69%
    07:00 +13°C° 0 mm 0 mps 761 mmHg 65%
    08:00 +14°C° 0 mm 0 mps 762 mmHg 61%
    09:00 +15°C° 0 mm 0 mps 762 mmHg 57%
    10:00 +19°C° 0 mm 1 mps 761 mmHg 51%
    11:00 +21°C° 0 mm 1 mps 761 mmHg 45%
    12:00 +22°C° 0 mm 1 mps 761 mmHg 39%
    13:00 +23°C° 0 mm 1 mps 761 mmHg 38%
    14:00 +23°C° 0 mm 1 mps 761 mmHg 36%
    15:00 +23°C° 0 mm 1 mps 761 mmHg 35%
    16:00 +22°C° 0 mm 1 mps 760 mmHg 39%
    17:00 +20°C° 0 mm 1 mps 760 mmHg 44%
    18:00 +17°C° 0 mm 0 mps 760 mmHg 48%
    19:00 +16°C° 0 mm 0 mps 760 mmHg 50%
    20:00 +16°C° 0 mm 0 mps 760 mmHg 51%
    21:00 +15°C° 0 mm 0 mps 760 mmHg 53%
    22:00 +14°C° 0 mm 0 mps 760 mmHg 54%
    23:00 +14°C° 0 mm 0 mps 760 mmHg 55%

    25 October, Friday

    Time Temperature Precipitation Wind Pressure Humidity
    00:00 +14°C° 0 mm 0 mps 760 mmHg 56%
    01:00 +13°C° 0 mm 0 mps 760 mmHg 58%
    02:00 +13°C° 0 mm 0 mps 760 mmHg 59%
    03:00 +12°C° 0 mm 0 mps 760 mmHg 61%
    04:00 +12°C° 0 mm 0 mps 760 mmHg 62%
    05:00 +12°C° 0 mm 0 mps 760 mmHg 63%
    06:00 +12°C° 0 mm 0 mps 760 mmHg 63%
    07:00 +13°C° 0 mm 0 mps 760 mmHg 59%
    08:00 +14°C° 0 mm 0 mps 760 mmHg 55%
    09:00 +16°C° 0 mm 0 mps 760 mmHg 51%
    10:00 +17°C° 0 mm 0 mps 760 mmHg 46%
    11:00 +21°C° 0 mm 1 mps 760 mmHg 42%
    12:00 +23°C° 0 mm 1 mps 760 mmHg 37%
    13:00 +23°C° 0 mm 1 mps 759 mmHg 36%
    14:00 +23°C° 0 mm 1 mps 759 mmHg 36%
    15:00 +23°C° 0 mm 1 mps 759 mmHg 35%
    16:00 +22°C° 0 mm 1 mps 759 mmHg 40%
    17:00 +18°C° 0 mm 0 mps 759 mmHg 45%
    18:00 +17°C° 0 mm 0 mps 759 mmHg 50%
    19:00 +16°C° 0 mm 0 mps 759 mmHg 52%
    20:00 +16°C° 0 mm 1 mps 759 mmHg 54%
    21:00 +16°C° 0 mm 1 mps 759 mmHg 56%
    22:00 +15°C° 0 mm 1 mps 759 mmHg 59%
    23:00 +15°C° 0 mm 1 mps 759 mmHg 62%

    26 October, Saturday

    Time Temperature Precipitation Wind Pressure Humidity
    00:00 +14°C° 0 mm 1 mps 759 mmHg 64%
    01:00 +14°C° 0 mm 1 mps 759 mmHg 66%
    02:00 +14°C° 0 mm 1 mps 759 mmHg 68%
    03:00 +13°C° 0 mm 1 mps 759 mmHg 70%
    04:00 +13°C° 0 mm 1 mps 759 mmHg 71%
    05:00 +13°C° 0 mm 1 mps 759 mmHg 73%
    06:00 +13°C° 0 mm 1 mps 760 mmHg 74%
    07:00 +14°C° 0 mm 1 mps 760 mmHg 69%
    08:00 +15°C° 0 mm 1 mps 760 mmHg 64%
    09:00 +16°C° 0 mm 1 mps 760 mmHg 59%
    10:00 +19°C° 0 mm 1 mps 760 mmHg 54%
    11:00 +21°C° 0 mm 1 mps 760 mmHg 50%
    12:00 +22°C° 0 mm 1 mps 760 mmHg 46%
    13:00 +22°C° 0.3 mm 1 mps 759 mmHg 48%
    14:00 +21°C° 0.3 mm 2 mps 759 mmHg 50%
    15:00 +20°C° 0.3 mm 2 mps 759 mmHg 52%
    16:00 +19°C° 0.6 mm 2 mps 759 mmHg 59%
    17:00 +18°C° 0.6 mm 2 mps 759 mmHg 65%
    18:00 +16°C° 0.6 mm 2 mps 759 mmHg 72%
    19:00 +15°C° 0.2 mm 2 mps 759 mmHg 77%
    20:00 +15°C° 0.2 mm 2 mps 759 mmHg 81%
    21:00 +14°C° 0.2 mm 2 mps 759 mmHg 86%
    22:00 +13°C° 0 mm 1 mps 759 mmHg 87%
    23:00 +13°C° 0 mm 1 mps 759 mmHg 87%

    27 October, Sunday

    Time Temperature Precipitation Wind Pressure Humidity
    00:00 +13°C° 0 mm 1 mps 759 mmHg 87%
    01:00 +12°C° 0 mm 1 mps 759 mmHg 88%
    02:00 +11°C° 0 mm 0 mps 759 mmHg 88%
    03:00 +11°C° 0 mm 0 mps 758 mmHg 88%
    04:00 +11°C° 0 mm 1 mps 759 mmHg 89%
    05:00 +11°C° 0 mm 1 mps 759 mmHg 89%
    06:00 +11°C° 0 mm 1 mps 759 mmHg 89%
    07:00 +12°C° 0 mm 1 mps 759 mmHg 84%
    08:00 +13°C° 0 mm 1 mps 759 mmHg 79%
    09:00 +14°C° 0 mm 1 mps 759 mmHg 74%
    10:00 +16°C° 0 mm 1 mps 758 mmHg 67%
    11:00 +19°C° 0 mm 1 mps 758 mmHg 59%
    12:00 +20°C° 0 mm 1 mps 758 mmHg 52%
    13:00 +21°C° 0 mm 1 mps 758 mmHg 51%
    14:00 +21°C° 0 mm 1 mps 758 mmHg 50%
    15:00 +21°C° 0 mm 1 mps 757 mmHg 49%
    16:00 +20°C° 0 mm 1 mps 757 mmHg 54%
    17:00 +19°C° 0 mm 1 mps 757 mmHg 59%
    18:00 +16°C° 0 mm 1 mps 757 mmHg 65%
    19:00 +16°C° 0 mm 1 mps 757 mmHg 67%
    20:00 +15°C° 0 mm 1 mps 757 mmHg 70%
    21:00 +15°C° 0 mm 1 mps 757 mmHg 72%
    22:00 +14°C° 0 mm 1 mps 758 mmHg 75%
    23:00 +14°C° 0 mm 1 mps 758 mmHg 77%

    28 October, Monday

    Time Temperature Precipitation Wind Pressure Humidity
    00:00 +14°C° 0 mm 1 mps 758 mmHg 80%
    01:00 +13°C° 0 mm 1 mps 757 mmHg 82%
    02:00 +13°C° 0 mm 1 mps 757 mmHg 83%
    03:00 +13°C° 0 mm 1 mps 757 mmHg 85%
    04:00 +13°C° 0 mm 2 mps 757 mmHg 86%
    05:00 +13°C° 0 mm 2 mps 757 mmHg 88%
    06:00 +13°C° 0 mm 2 mps 757 mmHg 89%
    07:00 +14°C° 0 mm 2 mps 757 mmHg 84%
    08:00 +15°C° 0 mm 2 mps 758 mmHg 79%
    09:00 +16°C° 0 mm 3 mps 758 mmHg 74%
    10:00 +18°C° 0 mm 3 mps 758 mmHg 66%
    11:00 +19°C° 0 mm 4 mps 758 mmHg 57%
    12:00 +20°C° 0 mm 4 mps 758 mmHg 49%
    13:00 +20°C° 0 mm 5 mps 758 mmHg 49%
    14:00 +20°C° 0 mm 5 mps 758 mmHg 49%
    15:00 +20°C° 0 mm 5 mps 758 mmHg 49%
    16:00 +19°C° 0 mm 5 mps 758 mmHg 56%
    17:00 +18°C° 0 mm 4 mps 758 mmHg 62%
    18:00 +15°C° 0 mm 4 mps 758 mmHg 69%
    19:00 +15°C° 0 mm 4 mps 758 mmHg 71%
    20:00 +16°C° 0 mm 3 mps 758 mmHg 73%
    21:00 +14°C° 0 mm 3 mps 758 mmHg 75%
    22:00 +14°C° 0 mm 3 mps 758 mmHg 75%
    23:00 +14°C° 0 mm 3 mps 758 mmHg 76%
    Show more